Regional Weather Roundup
Issued by NWS

Home | Current Version | Previous Version | Graphics & Text | Print | Product List | Glossary On
Versions: 1 2 3 4 5 6 7 8 9 10 11 12 13 14 15 16 17 18 19 20 21 22 23 24 25 26 27 28 29 30 31 32 33 34 35 36 37 38 39 40 41 42 43 44 45 46 47 48 49 50
000
ASUS43 KLSX 302259
RWRMO

WEATHER SUMMARY FOR MISSOURI
NATIONAL WEATHER SERVICE SPRINGFIELD MO
600 PM CDT MON MAR 30 2015

NOTE: "FAIR" INDICATES FEW OR NO CLOUDS BELOW 12,000 FEET WITH NO
       SIGNIFICANT WEATHER AND/OR OBSTRUCTIONS TO VISIBILITY.
       CURRENT SKY AND/OR WEATHER CONDITIONS ARE NOT AVAILABLE FOR
       CHILLICOTHE AND FARMINGTON.

MOZ001>031-035>038-043-044-053-054-310000-
...NORTHERN AND WESTERN MISSOURI...

CITY           SKY/WX    TMP DP  RH WIND       PRES   REMARKS
KANSAS CTY INT MOSUNNY   71  31  22 SW13      29.96F
KANSAS C DTWN  SUNNY     73  29  19 SW16G22   29.96F
LEE`S SUMMIT   SUNNY     70  32  24 SW16      29.98F
ST JOSEPH      PTSUNNY   72  28  19 SW15      29.94F
CHILLICOTHE      N/A     71  30  21 SW15G23   29.95F
KIRKSVILLE     SUNNY     69  32  25 SW12G25   29.94F

$$
MOZ066>068-077>081-088>096-101>105-310000-
...SOUTHWEST MISSOURI...

CITY           SKY/WX    TMP DP  RH WIND       PRES   REMARKS
SPRINGFIELD    SUNNY     70  32  24 S9        30.03F
JOPLIN         SUNNY     72  32  23 SW8       30.02F

$$
MOZ032>034-039>042-045>050-055>058-069>072-310000-
...CENTRAL MISSOURI...

CITY           SKY/WX    TMP DP  RH WIND       PRES   REMARKS
COLUMBIA       PTSUNNY   65  31  28 S8        29.99F
JEFFERSON CITY PTSUNNY   71  26  18 SW10      29.99F
ROLLA          SUNNY     68  25  19 SW13      30.00F
SEDALIA        MOSUNNY   70  27  20 SW16      29.99F
OSAGE BEACH    SUNNY     72  27  18 SW10G17   30.01F

$$
MOZ051-052-059>065-310000-
...EAST CENTRAL MISSOURI...

CITY           SKY/WX    TMP DP  RH WIND       PRES   REMARKS
ST LOUIS INTL  MOSUNNY   71  26  18 SW9       30.01F
SPIRIT OF STL  MOSUNNY   70  25  18 W13       29.99F
ST CHARLES     MOSUNNY   69  30  23 SW9       30.00F

$$
MOZ072>076-082>087-097>100-106>115-310000-
...SOUTH CENTRAL AND SOUTHEAST MISSOURI...

CITY           SKY/WX    TMP DP  RH WIND       PRES   REMARKS
CAPE GIRARDEAU SUNNY     64  41  42 S10       30.09F
FARMINGTON     SUNNY     70  28  21 SW13      30.07F
POPLAR BLUFF   SUNNY     65  38  36 SW10      30.08F
WEST PLAINS    SUNNY     68  30  24 SW9       30.07F

$$


USA.gov is the U.S. government's official web portal to all federal, state and local government web resources and services.